contact:dominique.lefevre@mio.osupytheas.fr, maurice.libes@osupytheas.fr, didier.mallarino@osupytheas.fr
Project:EMSO http://www.emso-fr.org/EMSO-France
Depth: 2436.0 m
Title:EMSO Ligure Ouest : Data MII capteur AQUADOPP
Date,Latitude,Longitude,X_East,Y_North,Z_Up,Amplitude_X,Amplitude_Y,Amplitude_Z,Batterie,SoundSpeed,Heading,Pitch,Roll,Pressure,TIS,Speed,Direction
, degrees North, degrees East, m.s-1, m.s-1,m.s-1, 1, 1, 1, Volt, m.s-1, degree, degree, degree, dbar, degree_C, m.s-1, degree
2020-04-20T00:04:02,42.805,6.029,-0.016,0.033,-0.071,104.0,111.0,100.0,13.4,1505.3,324.7,-0.7,1.8,2470.2,13.31,0.036,334.1
2020-04-20T00:07:03,42.805,6.029,-0.039,0.022,-0.069,103.0,111.0,101.0,13.4,1505.3,325.5,-0.7,1.9,2470.236,13.32,0.044,299.4
2020-04-20T00:10:03,42.805,6.029,-0.024,0.026,-0.02,104.0,115.0,101.0,13.4,1505.3,326.9,-0.8,1.9,2470.186,13.32,0.035,317.3
2020-04-20T00:13:03,42.805,6.029,-0.045,0.029,-0.051,103.0,114.0,100.0,13.4,1505.3,323.6,-0.7,1.8,2470.211,13.33,0.053,302.8
2020-04-20T00:16:03,42.805,6.029,-0.047,0.026,-0.084,103.0,114.0,100.0,13.4,1505.3,327.4,-0.7,1.8,2470.214,13.33,0.053,298.9
2020-04-20T00:19:03,42.805,6.029,-0.028,0.03,-0.034,101.0,112.0,99.0,13.4,1505.3,328.0,-0.7,1.8,2470.202,13.33,0.041,317.0
2020-04-20T00:22:02,42.805,6.029,-0.043,0.043,-0.036,102.0,113.0,99.0,13.4,1505.3,328.7,-0.7,1.8,2470.196,13.33,0.06,315.0
2020-04-20T00:25:03,42.805,6.029,-0.027,0.021,-0.027,102.0,112.0,100.0,13.4,1505.3,327.8,-0.7,1.8,2470.204,13.33,0.034,307.9
2020-04-20T00:28:03,42.805,6.029,-0.037,0.02,-0.046,105.0,113.0,100.0,13.3,1505.3,325.8,-0.7,1.9,2470.177,13.33,0.042,298.4
2020-04-20T00:31:03,42.805,6.029,-0.048,0.037,-0.049,102.0,114.0,101.0,13.3,1505.3,325.4,-0.7,1.8,2470.218,13.33,0.06,307.6
2020-04-20T00:34:03,42.805,6.029,-0.012,0.036,-0.033,102.0,112.0,100.0,13.4,1505.3,327.1,-0.7,1.8,2470.18,13.33,0.037,341.6
2020-04-20T00:37:03,42.805,6.029,-0.037,0.029,-0.037,103.0,111.0,101.0,13.4,1505.3,324.2,-0.7,1.8,2470.212,13.33,0.047,308.1
2020-04-20T00:40:03,42.805,6.029,-0.028,0.028,-0.016,100.0,113.0,100.0,13.3,1505.3,325.2,-0.7,1.8,2470.183,13.33,0.039,315.0
2020-04-20T00:43:03,42.805,6.029,-0.038,0.036,-0.036,103.0,113.0,100.0,13.4,1505.3,328.0,-0.7,1.9,2470.206,13.33,0.052,313.5
2020-04-20T00:46:03,42.805,6.029,-0.029,0.035,-0.013,102.0,114.0,99.0,13.3,1505.3,325.7,-0.7,1.9,2470.186,13.33,0.045,320.4
2020-04-20T00:49:03,42.805,6.029,-0.022,0.022,-0.049,101.0,112.0,100.0,13.3,1505.3,322.9,-0.7,1.8,2470.167,13.33,0.031,315.0
2020-04-20T00:52:03,42.805,6.029,-0.052,0.03,-0.017,102.0,113.0,99.0,13.4,1505.3,328.1,-0.7,1.8,2470.18,13.33,0.06,300.0
2020-04-20T00:55:03,42.805,6.029,-0.017,0.027,-0.024,102.0,110.0,99.0,13.4,1505.3,325.1,-0.7,1.8,2470.188,13.33,0.031,327.8
2020-04-20T00:58:03,42.805,6.029,-0.05,0.022,-0.087,102.0,112.0,101.0,13.4,1505.3,326.1,-0.7,1.8,2470.196,13.33,0.054,293.7
2020-04-20T01:04:03,42.805,6.029,-0.039,0.029,-0.079,103.0,115.0,101.0,13.3,1505.3,328.3,-0.7,1.8,2470.212,13.31,0.048,306.6
2020-04-20T01:07:02,42.805,6.029,-0.027,0.022,-0.033,104.0,112.0,100.0,13.3,1505.3,324.7,-0.7,1.8,2470.238,13.32,0.034,309.2
2020-04-20T01:10:03,42.805,6.029,-0.039,0.026,-0.082,101.0,112.0,100.0,13.3,1505.3,327.1,-0.7,1.8,2470.231,13.32,0.046,303.7
2020-04-20T01:13:03,42.805,6.029,-0.055,0.039,-0.06,100.0,115.0,101.0,13.4,1505.3,323.3,-0.7,1.8,2470.199,13.33,0.067,305.3
2020-04-20T01:16:03,42.805,6.029,-0.053,0.03,-0.017,102.0,112.0,100.0,13.4,1505.3,327.7,-0.7,1.8,2470.205,13.33,0.06,299.5
2020-04-20T01:19:03,42.805,6.029,-0.026,0.042,-0.034,103.0,114.0,100.0,13.4,1505.3,325.7,-0.7,1.8,2470.192,13.33,0.049,328.2
2020-04-20T01:22:03,42.805,6.029,-0.04,0.037,-0.014,100.0,112.0,101.0,13.3,1505.3,327.4,-0.7,1.8,2470.23,13.33,0.054,312.8
2020-04-20T01:25:03,42.805,6.029,-0.04,0.049,-0.045,101.0,113.0,100.0,13.4,1505.3,326.8,-0.7,1.8,2470.227,13.33,0.063,320.8
2020-04-20T01:28:03,42.805,6.029,-0.032,0.045,-0.01,101.0,113.0,101.0,13.4,1505.3,322.9,-0.7,1.8,2470.242,13.33,0.055,324.6
2020-04-20T01:31:03,42.805,6.029,-0.053,0.034,-0.054,101.0,115.0,101.0,13.3,1505.3,325.1,-0.7,1.8,2470.229,13.33,0.062,302.7
2020-04-20T01:34:03,42.805,6.029,-0.034,0.04,-0.04,102.0,113.0,101.0,13.3,1505.3,328.3,-0.7,1.8,2470.197,13.33,0.052,319.6
2020-04-20T01:37:02,42.805,6.029,-0.039,0.04,-0.044,101.0,112.0,99.0,13.3,1505.3,325.7,-0.7,1.9,2470.226,13.33,0.055,315.7
2020-04-20T01:40:03,42.805,6.029,-0.039,0.044,-0.015,101.0,114.0,101.0,13.4,1505.3,326.6,-0.7,1.8,2470.216,13.33,0.058,318.4
2020-04-20T01:43:03,42.805,6.029,-0.068,0.01,-0.046,102.0,115.0,100.0,13.4,1505.3,323.6,-0.7,1.8,2470.252,13.33,0.068,278.4
2020-04-20T01:46:03,42.805,6.029,-0.029,0.038,-0.018,100.0,112.0,101.0,13.3,1505.3,324.6,-0.7,1.8,2470.248,13.33,0.047,322.7
2020-04-20T01:49:03,42.805,6.029,-0.03,0.019,-0.056,103.0,113.0,101.0,13.4,1505.3,327.9,-0.7,1.8,2470.228,13.33,0.035,302.3
2020-04-20T01:52:03,42.805,6.029,-0.021,0.024,-0.052,105.0,111.0,101.0,13.4,1505.3,323.4,-0.7,1.8,2470.191,13.33,0.031,318.8
2020-04-20T01:55:03,42.805,6.029,-0.015,0.015,-0.058,102.0,114.0,100.0,13.4,1505.3,326.6,-0.7,1.8,2470.23,13.33,0.021,315.0
2020-04-20T01:58:03,42.805,6.029,-0.033,0.022,-0.06,101.0,114.0,100.0,13.4,1505.3,325.7,-0.7,1.8,2470.219,13.33,0.039,303.7
2020-04-20T02:04:03,42.805,6.029,-0.027,0.017,-0.061,101.0,112.0,101.0,13.3,1505.3,324.7,-0.7,1.8,2470.26,13.31,0.031,302.2
2020-04-20T02:10:02,42.805,6.029,-0.016,0.043,-0.016,104.0,113.0,99.0,13.3,1505.3,326.1,-0.7,1.8,2470.351,13.31,0.045,339.6
2020-04-20T02:13:03,42.805,6.029,-0.027,0.053,-0.027,102.0,112.0,100.0,13.4,1505.3,327.4,-0.7,1.8,2470.298,13.31,0.059,333.0
2020-04-20T02:16:03,42.805,6.029,-0.013,0.047,0.006,104.0,112.0,100.0,13.4,1505.3,326.6,-0.7,1.8,2470.286,13.32,0.048,344.5
2020-04-20T02:19:03,42.805,6.029,-0.02,0.026,0.004,102.0,113.0,100.0,13.4,1505.3,323.8,-0.7,1.8,2470.297,13.32,0.032,322.4
2020-04-20T02:22:03,42.805,6.029,-0.051,0.036,-0.054,101.0,113.0,100.0,13.3,1505.3,327.2,-0.7,1.8,2470.245,13.33,0.062,305.2
2020-04-20T02:25:03,42.805,6.029,-0.026,0.036,-0.044,100.0,112.0,99.0,13.4,1505.3,327.1,-0.7,1.8,2470.269,13.33,0.044,324.2
2020-04-20T02:28:03,42.805,6.029,-0.04,0.033,-0.043,102.0,112.0,99.0,13.4,1505.3,326.5,-0.7,1.8,2470.259,13.33,0.051,309.5
2020-04-20T02:31:03,42.805,6.029,-0.042,0.03,-0.019,101.0,112.0,101.0,13.3,1505.3,324.9,-0.7,1.8,2470.236,13.33,0.051,305.5
2020-04-20T02:34:03,42.805,6.029,-0.03,0.035,-0.03,102.0,113.0,99.0,13.4,1505.3,324.1,-0.7,1.8,2470.283,13.33,0.046,319.4
2020-04-20T02:37:03,42.805,6.029,-0.035,0.046,-0.038,101.0,113.0,100.0,13.4,1505.3,325.0,-0.7,1.8,2470.316,13.33,0.057,322.7
2020-04-20T02:40:03,42.805,6.029,-0.024,0.013,-0.014,102.0,111.0,100.0,13.4,1505.3,328.1,-0.7,1.8,2470.251,13.33,0.027,298.4
2020-04-20T02:43:03,42.805,6.029,-0.045,0.036,-0.04,102.0,113.0,100.0,13.4,1505.3,325.7,-0.7,1.8,2470.283,13.33,0.057,308.7
2020-04-20T02:46:03,42.805,6.029,-0.036,0.028,-0.04,102.0,112.0,101.0,13.3,1505.3,328.3,-0.7,1.9,2470.286,13.33,0.045,307.9
2020-04-20T02:49:03,42.805,6.029,-0.016,0.036,0.01,102.0,113.0,100.0,13.4,1505.3,328.1,-0.7,1.8,2470.273,13.33,0.039,336.0
2020-04-20T02:52:03,42.805,6.029,-0.011,0.028,-0.017,102.0,113.0,100.0,13.4,1505.3,326.3,-0.7,1.9,2470.293,13.33,0.03,338.6
2020-04-20T02:55:03,42.805,6.029,-0.014,0.023,-0.064,102.0,111.0,100.0,13.3,1505.3,328.5,-0.7,1.8,2470.282,13.33,0.026,328.7
2020-04-20T02:58:03,42.805,6.029,-0.071,0.013,-0.061,103.0,113.0,100.0,13.4,1505.3,322.8,-0.7,1.8,2470.301,13.33,0.072,280.4
2020-04-20T03:04:02,42.805,6.029,-0.046,0.041,-0.044,103.0,113.0,100.0,13.3,1505.3,324.2,-0.8,1.8,2470.291,13.31,0.061,311.7
2020-04-20T03:07:03,42.805,6.029,-0.045,0.042,-0.069,103.0,113.0,101.0,13.4,1505.3,324.9,-0.7,1.9,2470.284,13.32,0.061,313.0
2020-04-20T03:10:03,42.805,6.029,-0.026,0.028,-0.026,102.0,113.0,101.0,13.3,1505.3,326.6,-0.7,1.8,2470.348,13.32,0.038,317.1
2020-04-20T03:13:03,42.805,6.029,-0.037,0.042,-0.031,103.0,112.0,101.0,13.4,1505.3,324.4,-0.7,1.8,2470.27,13.32,0.055,318.6
2020-04-20T03:16:03,42.805,6.029,-0.042,0.04,-0.06,102.0,114.0,100.0,13.3,1505.3,327.1,-0.7,1.8,2470.341,13.33,0.057,313.6
2020-04-20T03:19:03,42.805,6.029,-0.029,0.04,-0.024,102.0,113.0,100.0,13.3,1505.3,327.4,-0.7,1.9,2470.315,13.33,0.049,324.1
2020-04-20T03:22:03,42.805,6.029,-0.059,0.018,-0.037,102.0,112.0,99.0,13.3,1505.3,326.7,-0.7,1.8,2470.288,13.33,0.061,287.0
2020-04-20T03:25:03,42.805,6.029,-0.066,0.03,-0.031,103.0,113.0,101.0,13.4,1505.3,326.9,-0.7,1.8,2470.339,13.33,0.072,294.4
2020-04-20T03:28:03,42.805,6.029,-0.061,0.016,-0.085,102.0,112.0,101.0,13.4,1505.3,322.8,-0.7,1.8,2470.314,13.33,0.063,284.7
2020-04-20T03:31:03,42.805,6.029,-0.044,0.019,-0.03,102.0,110.0,111.0,13.4,1505.3,328.0,-0.7,1.8,2470.28,13.33,0.047,293.4
2020-04-20T03:34:03,42.805,6.029,-0.046,0.03,-0.059,102.0,112.0,100.0,13.3,1505.3,324.7,-0.7,1.8,2470.366,13.33,0.054,303.1
2020-04-20T03:37:03,42.805,6.029,-0.038,0.03,-0.026,102.0,112.0,101.0,13.3,1505.3,324.2,-0.7,1.8,2470.351,13.33,0.048,308.3
2020-04-20T03:40:03,42.805,6.029,-0.037,0.022,-0.025,103.0,112.0,100.0,13.4,1505.3,327.2,-0.7,1.8,2470.349,13.33,0.043,300.7
2020-04-20T03:43:02,42.805,6.029,-0.052,0.024,-0.047,102.0,110.0,103.0,13.4,1505.3,326.7,-0.7,1.8,2470.344,13.33,0.057,294.8
2020-04-20T03:46:03,42.805,6.029,-0.061,0.032,-0.073,103.0,111.0,101.0,13.4,1505.3,323.9,-0.7,1.8,2470.321,13.33,0.068,297.7
2020-04-20T03:49:03,42.805,6.029,-0.078,0.033,-0.052,101.0,112.0,99.0,13.4,1505.3,324.8,-0.7,1.9,2470.33,13.33,0.084,292.9
2020-04-20T03:52:03,42.805,6.029,-0.063,0.033,-0.062,103.0,111.0,102.0,13.3,1505.3,323.9,-0.7,1.9,2470.301,13.33,0.071,297.6
2020-04-20T03:55:03,42.805,6.029,-0.059,0.011,-0.054,102.0,113.0,99.0,13.4,1505.3,326.4,-0.7,1.9,2470.341,13.33,0.06,280.6
2020-04-20T03:58:03,42.805,6.029,-0.007,0.041,-0.013,103.0,110.0,102.0,13.4,1505.3,326.5,-0.7,1.9,2470.33,13.33,0.041,350.3
2020-04-20T04:04:03,42.805,6.029,-0.022,0.034,-0.022,103.0,110.0,100.0,13.3,1505.3,325.0,-0.7,1.9,2470.372,13.31,0.04,327.1
2020-04-20T04:07:03,42.805,6.029,-0.052,0.031,-0.028,103.0,111.0,100.0,13.4,1505.3,327.9,-0.7,1.8,2470.343,13.32,0.06,300.8
2020-04-20T04:10:03,42.805,6.029,-0.052,0.044,-0.047,102.0,111.0,99.0,13.3,1505.3,327.0,-0.7,1.8,2470.327,13.32,0.068,310.2
2020-04-20T04:13:03,42.805,6.029,-0.054,0.023,-0.053,103.0,109.0,100.0,13.4,1505.3,326.3,-0.7,1.8,2470.338,13.32,0.058,293.1
2020-04-20T04:16:03,42.805,6.029,-0.043,0.03,-0.042,102.0,110.0,100.0,13.4,1505.3,324.3,-0.7,1.9,2470.364,13.32,0.052,304.9
2020-04-20T04:19:03,42.805,6.029,-0.068,0.03,-0.079,102.0,112.0,100.0,13.4,1505.3,326.9,-0.7,1.8,2470.362,13.33,0.074,293.8
2020-04-20T04:22:03,42.805,6.029,-0.036,0.016,-0.035,103.0,110.0,100.0,13.4,1505.3,328.2,-0.7,1.8,2470.361,13.33,0.039,294.0
2020-04-20T04:25:03,42.805,6.029,-0.041,0.037,-0.027,103.0,110.0,100.0,13.3,1505.3,326.8,-0.7,1.8,2470.348,13.33,0.055,312.1
2020-04-20T04:28:03,42.805,6.029,-0.03,0.026,-0.015,104.0,111.0,101.0,13.4,1505.3,323.5,-0.7,1.8,2470.397,13.33,0.039,310.9
2020-04-20T04:31:03,42.805,6.029,-0.03,0.04,-0.013,103.0,110.0,101.0,13.4,1505.3,325.0,-0.7,1.8,2470.391,13.33,0.05,323.1
2020-04-20T04:34:03,42.805,6.029,-0.045,0.038,-0.042,101.0,112.0,99.0,13.3,1505.3,323.8,-0.7,1.8,2470.375,13.33,0.058,310.2
2020-04-20T04:37:03,42.805,6.029,-0.029,0.049,-0.042,103.0,111.0,99.0,13.4,1505.3,325.3,-0.7,1.9,2470.334,13.33,0.056,329.4
2020-04-20T04:40:03,42.805,6.029,-0.064,0.028,-0.095,101.0,112.0,100.0,13.4,1505.3,325.7,-0.7,1.9,2470.378,13.33,0.069,293.6
2020-04-20T04:43:03,42.805,6.029,-0.052,0.019,-0.089,102.0,109.0,99.0,13.4,1505.3,324.1,-0.7,1.8,2470.378,13.33,0.055,290.1
2020-04-20T04:46:03,42.805,6.029,-0.068,0.039,-0.068,101.0,110.0,102.0,13.4,1505.3,324.3,-0.7,1.8,2470.384,13.33,0.078,299.8
2020-04-20T04:49:03,42.805,6.029,-0.052,0.027,-0.059,101.0,111.0,99.0,13.4,1505.3,328.0,-0.7,1.8,2470.367,13.33,0.058,297.4
2020-04-20T04:52:03,42.805,6.029,-0.092,0.032,-0.087,102.0,111.0,99.0,13.3,1505.3,323.4,-0.7,1.8,2470.351,13.33,0.097,289.2
2020-04-20T04:55:03,42.805,6.029,-0.069,0.042,-0.055,102.0,109.0,101.0,13.4,1505.3,323.5,-0.7,1.8,2470.393,13.33,0.08,301.3
2020-04-20T04:58:03,42.805,6.029,-0.04,0.016,-0.023,102.0,110.0,101.0,13.4,1505.3,323.4,-0.7,1.8,2470.365,13.33,0.043,291.8
2020-04-20T05:04:03,42.805,6.029,-0.069,0.003,-0.073,101.0,109.0,100.0,13.4,1505.3,323.3,-0.8,1.8,2470.439,13.31,0.069,272.5
2020-04-20T05:07:03,42.805,6.029,-0.047,0.027,-0.046,102.0,109.0,100.0,13.4,1505.3,325.3,-0.7,1.9,2470.387,13.31,0.054,299.9
2020-04-20T05:10:03,42.805,6.029,-0.028,0.044,-0.016,103.0,108.0,100.0,13.3,1505.3,328.2,-0.7,1.8,2470.373,13.32,0.052,327.5
2020-04-20T05:13:03,42.805,6.029,-0.056,0.037,-0.02,104.0,109.0,101.0,13.4,1505.3,323.6,-0.7,1.8,2470.398,13.32,0.067,303.5
2020-04-20T05:19:02,42.805,6.029,-0.045,0.029,-0.075,104.0,113.0,100.0,13.3,1505.3,328.2,-0.7,1.9,2470.398,13.31,0.053,302.8
2020-04-20T05:22:03,42.805,6.029,-0.062,0.021,-0.07,102.0,110.0,100.0,13.3,1505.3,325.4,-0.7,1.9,2470.434,13.31,0.065,288.7
2020-04-20T05:25:03,42.805,6.029,-0.028,0.034,-0.041,102.0,108.0,101.0,13.4,1505.3,323.8,-0.7,1.9,2470.374,13.32,0.044,320.5
2020-04-20T05:28:03,42.805,6.029,-0.021,0.043,-0.007,101.0,112.0,99.0,13.4,1505.3,327.1,-0.8,1.9,2470.388,13.32,0.047,334.0
2020-04-20T05:31:03,42.805,6.029,-0.039,0.027,-0.035,102.0,109.0,102.0,13.4,1505.3,326.1,-0.7,1.8,2470.365,13.32,0.047,304.7
2020-04-20T05:34:03,42.805,6.029,-0.043,0.025,-0.061,103.0,110.0,101.0,13.4,1505.3,324.1,-0.7,1.8,2470.364,13.32,0.049,300.2
2020-04-20T05:37:03,42.805,6.029,-0.032,0.027,-0.035,104.0,112.0,100.0,13.4,1505.3,325.6,-0.7,1.9,2470.396,13.33,0.041,310.2
2020-04-20T05:40:03,42.805,6.029,-0.04,0.04,-0.043,102.0,112.0,101.0,13.4,1505.3,325.1,-0.7,1.8,2470.393,13.33,0.056,315.0
2020-04-20T05:43:03,42.805,6.029,-0.005,0.013,-0.011,105.0,110.0,101.0,13.4,1505.3,326.5,-0.7,1.8,2470.375,13.33,0.013,339.0
2020-04-20T05:46:03,42.805,6.029,-0.032,0.048,0.002,103.0,109.0,100.0,13.4,1505.3,326.4,-0.7,1.8,2470.411,13.33,0.057,326.3
2020-04-20T05:49:03,42.805,6.029,-0.045,0.032,-0.032,102.0,110.0,102.0,13.4,1505.3,326.3,-0.7,1.8,2470.394,13.33,0.055,305.4
2020-04-20T05:52:03,42.805,6.029,-0.04,0.03,-0.038,103.0,109.0,100.0,13.4,1505.3,326.7,-0.7,1.9,2470.372,13.33,0.05,306.9
2020-04-20T05:55:03,42.805,6.029,-0.032,0.04,-0.029,102.0,110.0,101.0,13.3,1505.3,326.4,-0.8,1.9,2470.385,13.33,0.051,321.3
2020-04-20T05:58:03,42.805,6.029,-0.043,0.032,-0.029,104.0,110.0,100.0,13.4,1505.3,326.5,-0.7,1.8,2470.376,13.33,0.053,306.7
2020-04-20T06:04:03,42.805,6.029,-0.049,0.038,-0.064,103.0,110.0,100.0,13.4,1505.3,325.4,-0.7,1.8,2470.424,13.31,0.062,307.8
2020-04-20T06:07:03,42.805,6.029,-0.049,0.011,-0.037,103.0,110.0,104.0,13.4,1505.3,324.0,-0.8,1.8,2470.405,13.31,0.05,282.7
2020-04-20T06:10:03,42.805,6.029,-0.036,0.029,-0.032,102.0,111.0,100.0,13.4,1505.3,322.9,-0.7,1.8,2470.391,13.32,0.046,308.9
2020-04-20T06:13:03,42.805,6.029,-0.037,0.041,-0.014,103.0,110.0,99.0,13.4,1505.3,327.4,-0.7,1.9,2470.398,13.32,0.055,317.9
2020-04-20T06:16:03,42.805,6.029,-0.032,0.04,-0.01,101.0,111.0,100.0,13.4,1505.3,326.4,-0.7,1.9,2470.452,13.32,0.051,321.3
2020-04-20T06:19:03,42.805,6.029,-0.028,0.024,-0.046,104.0,111.0,101.0,13.4,1505.3,323.5,-0.7,1.8,2470.401,13.33,0.036,310.6
2020-04-20T06:22:03,42.805,6.029,-0.041,0.019,-0.064,103.0,109.0,100.0,13.4,1505.3,327.4,-0.7,1.8,2470.366,13.33,0.045,294.9
2020-04-20T06:25:03,42.805,6.029,-0.036,0.015,-0.039,102.0,109.0,102.0,13.4,1505.3,325.1,-0.7,1.8,2470.385,13.33,0.039,292.6
2020-04-20T06:28:03,42.805,6.029,-0.039,0.033,-0.048,102.0,112.0,101.0,13.4,1505.3,324.5,-0.7,1.8,2470.391,13.33,0.051,310.2
2020-04-20T06:31:03,42.805,6.029,-0.007,0.045,0.004,103.0,111.0,100.0,13.4,1505.3,325.8,-0.7,1.8,2470.413,13.33,0.045,351.2
2020-04-20T06:34:03,42.805,6.029,-0.051,0.067,-0.006,102.0,111.0,102.0,13.3,1505.3,326.4,-0.7,1.8,2470.394,13.33,0.084,322.7
2020-04-20T06:37:03,42.805,6.029,-0.042,0.026,-0.04,102.0,111.0,101.0,13.3,1505.3,324.4,-0.7,1.8,2470.396,13.33,0.049,301.8
2020-04-20T06:40:03,42.805,6.029,-0.045,0.025,-0.015,104.0,111.0,101.0,13.4,1505.3,326.3,-0.7,1.9,2470.404,13.33,0.051,299.1
2020-04-20T06:43:03,42.805,6.029,-0.045,0.035,-0.017,102.0,113.0,100.0,13.4,1505.3,328.1,-0.7,1.8,2470.441,13.33,0.057,307.9
2020-04-20T06:46:03,42.805,6.029,-0.039,0.036,-0.035,101.0,113.0,100.0,13.4,1505.3,326.4,-0.7,1.8,2470.4,13.33,0.053,312.7
2020-04-20T06:49:03,42.805,6.029,-0.022,0.054,-0.02,102.0,112.0,100.0,13.3,1505.3,324.6,-0.7,1.8,2470.391,13.33,0.058,337.8
2020-04-20T06:52:03,42.805,6.029,-0.063,0.041,-0.055,102.0,111.0,100.0,13.3,1505.3,324.6,-0.7,1.8,2470.39,13.33,0.075,303.1
2020-04-20T06:55:03,42.805,6.029,-0.047,0.028,-0.029,103.0,112.0,101.0,13.4,1505.3,324.2,-0.7,1.9,2470.373,13.33,0.054,300.8
2020-04-20T06:58:03,42.805,6.029,-0.022,0.028,-0.038,102.0,111.0,101.0,13.4,1505.3,325.3,-0.7,1.9,2470.373,13.33,0.035,321.8
2020-04-20T07:04:03,42.805,6.029,-0.055,0.02,-0.045,103.0,112.0,100.0,13.3,1505.3,324.9,-0.7,1.8,2470.405,13.31,0.058,290.0
2020-04-20T07:07:03,42.805,6.029,-0.071,0.034,-0.049,104.0,111.0,99.0,13.4,1505.3,323.2,-0.7,1.8,2470.415,13.31,0.078,295.6
2020-04-20T07:10:03,42.805,6.029,-0.024,0.037,-0.007,103.0,115.0,102.0,13.4,1505.3,328.5,-0.7,1.8,2470.418,13.32,0.044,327.0
2020-04-20T07:13:03,42.805,6.029,-0.044,0.03,-0.049,102.0,113.0,100.0,13.4,1505.3,326.6,-0.7,1.8,2470.425,13.32,0.053,304.3
2020-04-20T07:16:03,42.805,6.029,-0.044,0.044,0.0,103.0,113.0,100.0,13.4,1505.3,323.8,-0.7,1.8,2470.409,13.32,0.062,315.0
2020-04-20T07:19:03,42.805,6.029,-0.002,0.035,-0.033,103.0,113.0,99.0,13.3,1505.3,323.5,-0.7,1.8,2470.475,13.33,0.035,356.7
2020-04-20T07:22:03,42.805,6.029,-0.061,0.034,-0.061,103.0,112.0,100.0,13.4,1505.3,323.6,-0.7,1.9,2470.416,13.33,0.069,299.1
2020-04-20T07:25:03,42.805,6.029,-0.034,0.035,-0.033,103.0,113.0,100.0,13.4,1505.3,327.9,-0.7,1.8,2470.462,13.33,0.048,315.8
2020-04-20T07:28:03,42.805,6.029,-0.054,0.024,-0.047,103.0,113.0,100.0,13.4,1505.3,327.8,-0.7,1.8,2470.432,13.33,0.059,294.0
2020-04-20T07:31:03,42.805,6.029,-0.034,0.032,-0.03,103.0,112.0,100.0,13.4,1505.3,328.0,-0.7,1.8,2470.404,13.33,0.046,313.3
2020-04-20T07:34:03,42.805,6.029,-0.048,0.039,-0.024,103.0,115.0,100.0,13.4,1505.3,324.9,-0.7,1.8,2470.414,13.33,0.061,309.1
2020-04-20T07:37:03,42.805,6.029,-0.056,0.051,-0.035,101.0,112.0,100.0,13.4,1505.3,326.5,-0.7,1.8,2470.352,13.33,0.075,312.3
2020-04-20T07:40:03,42.805,6.029,-0.043,0.032,-0.013,101.0,115.0,101.0,13.4,1505.3,323.3,-0.7,1.9,2470.345,13.33,0.053,306.7
2020-04-20T07:43:03,42.805,6.029,-0.016,0.033,-0.017,102.0,113.0,100.0,13.4,1505.3,323.4,-0.7,1.8,2470.381,13.33,0.036,334.1
2020-04-20T07:46:03,42.805,6.029,-0.041,0.04,-0.043,105.0,111.0,101.0,13.4,1505.3,323.2,-0.7,1.8,2470.367,13.33,0.057,314.3
2020-04-20T07:49:03,42.805,6.029,-0.035,0.019,-0.049,101.0,113.0,102.0,13.4,1505.3,323.5,-0.7,1.8,2470.371,13.33,0.039,298.5
2020-04-20T07:52:03,42.805,6.029,-0.04,0.06,-0.046,104.0,112.0,101.0,13.4,1505.3,323.5,-0.7,1.8,2470.339,13.33,0.072,326.3
2020-04-20T07:55:03,42.805,6.029,-0.002,0.041,-0.036,102.0,113.0,102.0,13.3,1505.3,325.4,-0.7,1.8,2470.42,13.33,0.041,357.2
2020-04-20T07:58:03,42.805,6.029,-0.04,0.034,-0.031,101.0,114.0,102.0,13.4,1505.3,324.3,-0.7,1.8,2470.33,13.33,0.052,310.4
2020-04-20T08:04:03,42.805,6.029,-0.046,0.031,-0.026,103.0,114.0,100.0,13.4,1505.3,326.9,-0.8,1.9,2470.388,13.31,0.055,304.0
2020-04-20T08:07:03,42.805,6.029,-0.009,0.014,-0.012,104.0,114.0,100.0,13.4,1505.3,327.8,-0.7,1.8,2470.397,13.31,0.016,327.3
2020-04-20T08:10:03,42.805,6.029,-0.032,0.046,-0.047,103.0,113.0,100.0,13.4,1505.3,327.6,-0.7,1.8,2470.375,13.32,0.056,325.2
2020-04-20T08:13:03,42.805,6.029,-0.034,0.025,0.002,103.0,112.0,101.0,13.4,1505.3,325.3,-0.7,1.9,2470.377,13.32,0.042,306.3
2020-04-20T08:16:03,42.805,6.029,-0.044,0.022,-0.05,104.0,113.0,102.0,13.4,1505.3,325.3,-0.7,1.8,2470.377,13.33,0.049,296.6
2020-04-20T08:19:03,42.805,6.029,-0.039,0.05,-0.019,102.0,113.0,102.0,13.4,1505.3,323.5,-0.7,1.8,2470.401,13.33,0.063,322.0
2020-04-20T08:22:03,42.805,6.029,-0.014,0.029,-0.013,101.0,114.0,102.0,13.3,1505.3,324.0,-0.7,1.8,2470.405,13.33,0.032,334.2
2020-04-20T08:25:03,42.805,6.029,-0.03,0.039,-0.018,103.0,113.0,101.0,13.4,1505.3,324.5,-0.7,1.8,2470.322,13.33,0.049,322.4
2020-04-20T08:28:03,42.805,6.029,-0.064,0.033,-0.048,104.0,114.0,101.0,13.4,1505.3,326.2,-0.7,1.8,2470.375,13.33,0.072,297.3
2020-04-20T08:31:03,42.805,6.029,-0.019,0.044,-0.054,105.0,112.0,100.0,13.4,1505.3,324.4,-0.7,1.8,2470.321,13.33,0.047,336.6
2020-04-20T08:34:03,42.805,6.029,-0.02,0.053,-0.02,102.0,113.0,101.0,13.3,1505.3,325.2,-0.7,1.8,2470.357,13.33,0.056,339.3
2020-04-20T08:37:03,42.805,6.029,-0.025,0.039,-0.026,103.0,114.0,100.0,13.4,1505.3,324.2,-0.7,1.8,2470.363,13.33,0.046,327.3
2020-04-20T08:40:03,42.805,6.029,-0.035,0.047,-0.025,101.0,114.0,100.0,13.3,1505.3,324.8,-0.7,1.8,2470.383,13.33,0.058,323.3
2020-04-20T08:43:03,42.805,6.029,-0.043,0.043,-0.066,101.0,114.0,101.0,13.3,1505.3,324.5,-0.7,1.8,2470.338,13.33,0.06,315.0
2020-04-20T08:46:03,42.805,6.029,-0.047,0.046,-0.031,102.0,114.0,101.0,13.4,1505.3,323.1,-0.7,1.9,2470.378,13.33,0.065,314.4
2020-04-20T08:49:03,42.805,6.029,-0.039,0.033,-0.016,103.0,112.0,102.0,13.3,1505.3,327.7,-0.7,1.8,2470.326,13.33,0.051,310.2
2020-04-20T08:52:03,42.805,6.029,-0.024,0.033,-0.049,103.0,114.0,101.0,13.4,1505.3,326.1,-0.7,1.8,2470.325,13.33,0.04,324.0
2020-04-20T08:55:03,42.805,6.029,-0.033,0.034,-0.031,104.0,115.0,101.0,13.3,1505.3,322.7,-0.7,1.8,2470.307,13.33,0.047,315.9
2020-04-20T08:58:03,42.805,6.029,-0.028,0.042,-0.019,102.0,113.0,100.0,13.4,1505.3,325.2,-0.7,1.8,2470.364,13.33,0.05,326.3
2020-04-20T09:04:03,42.805,6.029,-0.05,0.048,-0.017,103.0,114.0,100.0,13.4,1505.3,327.1,-0.7,1.8,2470.354,13.31,0.069,313.8
2020-04-20T09:07:03,42.805,6.029,-0.041,0.027,-0.015,102.0,112.0,101.0,13.4,1505.3,324.8,-0.7,1.8,2470.362,13.32,0.049,303.4
2020-04-20T09:10:03,42.805,6.029,-0.025,0.036,-0.041,105.0,113.0,101.0,13.3,1505.3,326.4,-0.7,1.8,2470.313,13.32,0.043,325.2
2020-04-20T09:13:03,42.805,6.029,-0.038,0.042,-0.035,103.0,112.0,101.0,13.4,1505.3,326.2,-0.7,1.8,2470.33,13.32,0.056,317.9
2020-04-20T09:16:03,42.805,6.029,-0.032,0.031,-0.043,103.0,113.0,100.0,13.4,1505.3,326.4,-0.7,1.8,2470.315,13.33,0.044,314.1
2020-04-20T09:19:03,42.805,6.029,-0.023,0.039,-0.031,101.0,113.0,100.0,13.4,1505.3,324.3,-0.7,1.8,2470.346,13.33,0.045,329.5
2020-04-20T09:22:03,42.805,6.029,-0.008,0.025,0.002,102.0,114.0,101.0,13.3,1505.3,327.1,-0.7,1.8,2470.34,13.33,0.026,342.3
2020-04-20T09:25:03,42.805,6.029,-0.038,0.06,-0.006,103.0,115.0,100.0,13.4,1505.3,325.4,-0.7,1.8,2470.321,13.33,0.071,327.7
2020-04-20T09:28:03,42.805,6.029,-0.055,0.021,-0.039,103.0,112.0,99.0,13.4,1505.3,325.5,-0.7,1.8,2470.315,13.33,0.058,290.9
2020-04-20T09:31:03,42.805,6.029,-0.019,0.026,-0.031,100.0,115.0,101.0,13.4,1505.3,326.9,-0.7,1.9,2470.326,13.33,0.032,323.8
2020-04-20T09:34:03,42.805,6.029,-0.075,0.051,-0.052,102.0,115.0,101.0,13.4,1505.3,324.3,-0.7,1.8,2470.325,13.33,0.09,304.2
2020-04-20T09:37:03,42.805,6.029,-0.018,0.036,-0.025,102.0,114.0,103.0,13.3,1505.3,326.1,-0.7,1.8,2470.312,13.33,0.04,333.4
2020-04-20T09:40:03,42.805,6.029,-0.044,0.044,-0.016,103.0,115.0,101.0,13.4,1505.3,326.0,-0.7,1.8,2470.273,13.33,0.062,315.0
2020-04-20T09:43:03,42.805,6.029,-0.017,0.058,-0.016,102.0,115.0,100.0,13.4,1505.3,323.9,-0.7,1.9,2470.317,13.33,0.06,343.7
2020-04-20T09:46:03,42.805,6.029,-0.048,0.038,-0.034,104.0,116.0,100.0,13.3,1505.3,327.7,-0.7,1.8,2470.282,13.33,0.061,308.4
2020-04-20T09:49:03,42.805,6.029,-0.058,0.038,-0.063,104.0,113.0,101.0,13.4,1505.3,325.4,-0.7,1.8,2470.279,13.33,0.069,303.2
2020-04-20T09:52:03,42.805,6.029,-0.06,0.045,-0.058,103.0,115.0,100.0,13.4,1505.3,325.8,-0.7,1.9,2470.298,13.33,0.074,306.9
2020-04-20T09:55:03,42.805,6.029,-0.016,0.056,-0.012,103.0,115.0,101.0,13.3,1505.3,324.5,-0.7,1.8,2470.314,13.33,0.058,344.1
2020-04-20T09:58:03,42.805,6.029,-0.014,0.034,-0.042,104.0,113.0,101.0,13.4,1505.3,325.2,-0.7,1.8,2470.262,13.33,0.036,337.6
2020-04-20T10:04:03,42.805,6.029,-0.032,0.046,-0.021,103.0,116.0,102.0,13.4,1505.3,325.8,-0.7,1.8,2470.305,13.31,0.056,325.2